DW9356 Weather Reports


Display with metric or nautical units.
time (UTC)temp
F
wind
direction
speed
MPH
gust
MPH
rain 1hr
in
rain 24hr
in
rain mn
in
humidity
%
barometer
mb
20260902043511 78 97 0.0 1.0 0.00 0.03 0.03 91 1013.3
20260902043005 78 97 0.0 1.0 0.00 0.03 0.03 91 1013.4
20260902042500 78 97 0.0 1.0 0.00 0.03 0.03 91 1013.4
20260902041959 78 96 0.0 1.0 0.00 0.03 0.03 91 1013.4
20260902041456 78 96 0.0 1.0 0.00 0.03 0.03 91 1013.4
20260902040952 78 81 0.0 1.0 0.00 0.03 0.03 91 1013.5
20260902040427 78 80 0.0 1.0 0.00 0.03 0.03 91 1013.6
20260902040408 78 80 0.0 1.0 0.00 0.03 0.03 91 1013.6
20260902035356 78 81 0.0 0.0 0.00 0.03 0.03 91 1013.6
20260902034829 78 80 0.0 0.0 0.00 0.03 0.03 91 1013.5
20260902034303 79 80 0.0 0.0 0.00 0.03 0.03 91 1013.5
20260902033738 79 80 0.0 0.0 0.00 0.03 0.03 91 1013.6
20260902033212 79 80 0.0 0.0 0.00 0.03 0.03 91 1013.7
20260902033158 79 80 0.0 0.0 0.00 0.03 0.03 91 1013.7
20260902032215 79 80 0.0 0.0 0.00 0.03 0.03 91 1013.7
20260902032131 79 80 0.0 1.0 0.00 0.03 0.03 91 1013.7
20260902031145 79 80 0.0 1.0 0.00 0.03 0.03 91 1013.6
20260902030619 79 80 0.0 1.0 0.00 0.03 0.03 91 1013.5
20260902030052 79 80 0.0 0.0 0.00 0.03 0.03 91 1013.4
20260902025549 79 80 0.0 0.0 0.00 0.03 0.03 91 1013.4
20260902025046 79 80 0.0 0.0 0.00 0.03 0.03 91 1013.3
20260902024544 79 80 0.0 0.0 0.00 0.03 0.03 91 1013.2
20260902024032 79 80 0.0 0.0 0.00 0.03 0.03 91 1013.1
20260902023535 79 80 0.0 0.0 0.00 0.03 0.03 91 1013.1
20260902023009 79 81 0.0 0.0 0.00 0.03 0.03 91 1013.0
20260902022443 79 80 0.0 0.0 0.00 0.03 0.03 91 1012.9
20260902021915 79 80 0.0 0.0 0.00 0.03 0.03 91 1012.8
20260902021611 79 80 0.0 0.0 0.00 0.03 0.03 91 1012.6
20260902020823 79 80 0.0 0.0 0.00 0.03 0.03 91 1012.5
20260902020319 79 80 0.0 0.0 0.00 0.03 0.03 91 1012.6
20260902015815 80 80 0.0 0.0 0.00 0.03 0.03 91 1012.5
20260902015534 80 80 0.0 0.0 0.00 0.03 0.03 91 1012.3
20260902014748 80 80 0.0 0.0 0.00 0.03 0.03 91 1012.3
20260902014245 80 80 0.0 0.0 0.00 0.03 0.03 91 1012.2
20260902013743 80 80 0.0 0.0 0.00 0.03 0.03 91 1012.2
20260902013230 80 80 0.0 1.0 0.00 0.03 0.03 91 1012.1
20260902012732 80 80 0.0 1.0 0.00 0.03 0.03 90 1012.2
20260902012220 80 80 0.0 1.0 0.00 0.03 0.03 90 1012.1
20260902011950 80 80 0.0 1.0 0.00 0.03 0.03 90 1012.1
20260902011153 80 80 0.0 1.0 0.00 0.03 0.03 90 1012.1
20260902010650 80 80 0.0 1.0 0.00 0.03 0.03 90 1012.1
20260902010346 80 80 0.0 1.0 0.00 0.03 0.03 90 1012.2
20260902005600 80 80 0.0 1.0 0.00 0.03 0.03 90 1012.1
20260902005033 80 80 0.0 1.0 0.00 0.03 0.03 90 1012.1
20260902004505 81 80 0.0 1.0 0.00 0.03 0.03 90 1012.2
20260902004230 81 80 0.0 1.0 0.00 0.03 0.03 90 1012.3
20260902003437 81 81 0.0 1.0 0.00 0.03 0.03 90 1012.4
20260902002934 81 81 0.0 1.0 0.00 0.03 0.03 90 1012.4
20260902002430 80 81 0.0 1.0 0.00 0.03 0.03 90 1012.4
20260902001900 80 81 0.0 2.0 0.00 0.03 0.03 90 1012.4
20260902001551 80 80 0.0 2.0 0.00 0.03 0.03 91 1012.3
20260902000831 80 80 0.0 1.0 0.00 0.03 0.03 91 1012.2
20260902000329 80 80 0.0 2.0 0.00 0.03 0.03 91 1012.1
20260901235823 80 80 0.0 2.0 0.00 0.03 0.03 91 1012.1
20260901235806 80 81 0.0 3.0 0.00 0.03 0.03 91 1012.2
20260901234753 80 85 0.0 3.0 0.00 0.03 0.03 91 1012.2
20260901234226 80 61 0.0 6.0 0.01 0.03 0.03 91 1012.3
20260901233724 80 63 0.0 6.0 0.03 0.03 0.03 91 1012.4
20260901233220 80 63 1.0 6.0 0.03 0.03 0.03 90 1012.5
20260901232709 80 47 2.0 6.0 0.03 0.03 0.03 89 1012.5
20260901232206 80 348 1.0 5.0 0.03 0.03 0.03 90 1012.6
20260901231707 81 88 1.0 5.0 0.03 0.03 0.03 90 1012.7
20260901231204 81 53 1.0 4.0 0.03 0.03 0.03 90 1012.8
20260901230700 81 77 1.0 4.0 0.03 0.03 0.03 89 1012.8
20260901230157 81 94 1.0 4.0 0.03 0.03 0.03 88 1012.8
20260901225653 81 18 1.0 5.0 0.03 0.03 0.03 87 1012.9
20260901225150 82 53 1.0 5.0 0.03 0.03 0.03 85 1013.0
20260901224908 83 80 3.0 10.0 0.03 0.03 0.03 83 1013.1
20260901224409 84 67 4.0 11.0 0.02 0.02 0.02 79 1013.2
20260901223617 86 80 3.0 10.0 0.00 0.00 0.00 75 1013.2
20260901223105 87 91 3.0 18.0 0.00 0.00 0.00 75 1013.2
20260901222606 88 60 6.0 13.0 0.00 0.00 0.00 74 1013.3
20260901222040 89 91 6.0 19.0 0.00 0.00 0.00 72 1013.3
20260901221533 90 32 4.0 19.0 0.00 0.00 0.00 70 1013.2
20260901221200 90 91 3.0 10.0 0.00 0.00 0.00 64 1012.7
20260901221052 91 76 3.0 10.0 0.00 0.00 0.00 66 1012.9
20260901220002 90 92 2.0 8.0 0.00 0.00 0.00 64 1012.8
20260901215435 90 85 2.0 8.0 0.00 0.00 0.00 64 1012.8
20260901214909 90 28 2.0 6.0 0.00 0.00 0.00 64 1012.8
20260901214342 90 30 2.0 6.0 0.00 0.00 0.00 64 1012.9
20260901213816 90 69 2.0 6.0 0.00 0.00 0.00 65 1012.8
20260901213313 90 27 2.0 5.0 0.00 0.00 0.00 64 1012.8
20260901212810 90 40 1.0 4.0 0.00 0.00 0.00 68 1012.8
20260901212243 89 14 1.0 3.0 0.00 0.00 0.00 69 1012.7
20260901211742 90 32 1.0 4.0 0.00 0.00 0.00 70 1012.8
20260901211241 90 304 2.0 5.0 0.00 0.00 0.00 71 1012.7
20260901210953 89 29 2.0 5.0 0.00 0.00 0.00 71 1012.8
20260901210434 89 311 1.0 4.0 0.00 0.00 0.00 71 1012.8
20260901205639 90 289 1.0 4.0 0.00 0.00 0.00 71 1012.8
20260901205111 89 345 1.0 4.0 0.00 0.00 0.00 71 1012.7
20260901204609 89 309 1.0 4.0 0.00 0.00 0.00 72 1012.7
20260901204105 89 284 1.0 4.0 0.00 0.00 0.00 72 1012.7
20260901203602 89 331 1.0 4.0 0.00 0.00 0.00 73 1012.8
20260901203059 89 268 1.0 7.0 0.00 0.00 0.00 72 1012.9
20260901202556 89 279 1.0 7.0 0.00 0.00 0.00 72 1012.9
20260901202321 89 5 1.0 3.0 0.00 0.00 0.00 72 1013.1
20260901201527 89 299 1.0 3.0 0.00 0.00 0.00 73 1013.3
20260901201024 89 51 0.0 3.0 0.00 0.00 0.00 74 1013.5
20260901200513 89 13 0.0 3.0 0.00 0.00 0.00 74 1013.6
20260901200015 89 14 1.0 5.0 0.00 0.00 0.00 75 1013.8
20260901195511 89 13 1.0 5.0 0.00 0.00 0.00 74 1014.0
20260901195008 89 355 2.0 7.0 0.00 0.00 0.00 74 1014.2
20260901194506 88 304 2.0 9.0 0.00 0.00 0.00 74 1014.3
20260901194004 89 56 2.0 8.0 0.00 0.00 0.00 74 1014.4
20260901193456 88 91 1.0 5.0 0.00 0.00 0.00 75 1014.4
20260901192953 88 72 1.0 5.0 0.00 0.00 0.00 74 1014.4
20260901192711 88 26 2.0 5.0 0.00 0.00 0.00 74 1014.2
20260901191947 88 19 2.0 5.0 0.00 0.00 0.00 74 1014.1
20260901191419 88 5 1.0 5.0 0.00 0.00 0.00 74 1014.1
20260901190916 88 37 0.0 4.0 0.00 0.00 0.00 76 1014.1
20260901190351 87 36 0.0 4.0 0.00 0.00 0.00 76 1014.1
20260901185825 87 307 1.0 3.0 0.00 0.00 0.00 76 1014.1
20260901185257 87 307 1.0 3.0 0.00 0.00 0.00 76 1014.2
20260901184732 87 304 0.0 3.0 0.00 0.00 0.00 77 1014.2
20260901184431 87 304 1.0 2.0 0.00 0.00 0.00 76 1014.3
20260901183702 87 285 1.0 4.0 0.00 0.00 0.00 76 1014.3
20260901183136 87 271 1.0 5.0 0.00 0.00 0.00 76 1014.4
20260901182610 87 286 2.0 5.0 0.00 0.00 0.00 76 1014.5
20260901182050 87 297 2.0 5.0 0.00 0.00 0.00 77 1014.6
20260901181552 87 296 2.0 5.0 0.00 0.00 0.00 78 1014.7
20260901181050 87 15 2.0 5.0 0.00 0.00 0.00 78 1014.8
20260901180550 87 59 2.0 7.0 0.00 0.00 0.00 79 1014.9
20260901180053 87 29 2.0 7.0 0.00 0.00 0.00 79 1015.0
20260901175526 87 319 1.0 5.0 0.00 0.00 0.00 80 1015.0
20260901175023 87 331 1.0 5.0 0.00 0.00 0.00 79 1015.1
20260901174519 87 28 1.0 4.0 0.00 0.00 0.00 78 1015.2
20260901174018 87 29 1.0 4.0 0.00 0.00 0.00 79 1015.3
20260901173449 87 28 2.0 4.0 0.00 0.00 0.00 77 1015.3
20260901172946 87 349 2.0 6.0 0.00 0.00 0.00 79 1015.4
20260901172703 87 10 1.0 6.0 0.00 0.00 0.00 78 1015.6
20260901171940 86 13 1.0 3.0 0.00 0.00 0.00 78 1015.6
20260901171413 86 77 1.0 4.0 0.00 0.00 0.00 78 1015.8
20260901170909 86 74 1.0 4.0 0.00 0.00 0.00 79 1015.9
20260901170345 86 313 2.0 7.0 0.00 0.00 0.00 79 1015.9
20260901165841 86 98 2.0 7.0 0.00 0.00 0.00 78 1015.9
20260901165339 86 34 2.0 5.0 0.00 0.00 0.00 79 1016.0
20260901164822 86 291 2.0 5.0 0.00 0.00 0.00 79 1016.1
20260901164322 86 328 1.0 5.0 0.00 0.00 0.00 79 1016.1
20260901164047 86 17 1.0 5.0 0.00 0.00 0.00 80 1016.0
20260901163550 86 37 2.0 5.0 0.00 0.00 0.00 80 1016.0
20260901162754 86 24 2.0 4.0 0.00 0.00 0.00 79 1016.0
20260901162250 86 301 2.0 6.0 0.00 0.00 0.00 79 1016.1
20260901161739 86 56 2.0 5.0 0.00 0.00 0.00 78 1015.9
20260901161236 86 355 2.0 5.0 0.00 0.00 0.00 78 1015.8
20260901160709 86 306 2.0 7.0 0.00 0.00 0.00 78 1015.8
20260901160434 86 23 3.0 7.0 0.00 0.00 0.00 77 1015.8
20260901155704 86 351 2.0 6.0 0.00 0.00 0.00 78 1015.8
20260901155200 86 349 2.0 6.0 0.00 0.00 0.00 79 1015.7
20260901154647 86 31 2.0 8.0 0.00 0.00 0.00 78 1015.7
20260901154408 86 26 2.0 8.0 0.00 0.00 0.00 78 1015.7
20260901153910 86 320 2.0 6.0 0.00 0.00 0.00 78 1015.8
20260901153121 86 348 3.0 7.0 0.00 0.00 0.00 78 1015.7
20260901152619 86 5 3.0 7.0 0.00 0.00 0.00 78 1015.8
20260901152306 86 86 1.0 5.0 0.00 0.00 0.00 80 1015.8
20260901152148 86 69 1.0 5.0 0.00 0.00 0.00 79 1015.7
20260901151020 86 332 2.0 5.0 0.00 0.00 0.00 80 1015.8
20260901150513 85 28 2.0 5.0 0.00 0.00 0.00 80 1015.9
20260901150010 85 323 1.0 5.0 0.00 0.00 0.00 81 1015.9
20260901145455 85 51 1.0 5.0 0.00 0.00 0.00 81 1015.8
20260901144954 85 12 1.0 5.0 0.00 0.00 0.00 81 1015.9
20260901144427 85 5 1.0 4.0 0.00 0.00 0.00 81 1015.9
20260901144145 85 31 1.0 4.0 0.00 0.00 0.00 81 1015.9
20260901143421 85 113 2.0 6.0 0.00 0.00 0.00 82 1015.9
20260901142853 85 41 2.0 6.0 0.00 0.00 0.00 81 1015.8
20260901142324 84 16 2.0 5.0 0.00 0.00 0.00 82 1015.9
20260901141758 84 40 2.0 6.0 0.00 0.00 0.00 84 1015.9
20260901141255 83 72 1.0 3.0 0.00 0.00 0.00 86 1016.0
20260901140749 83 19 1.0 4.0 0.00 0.00 0.00 87 1016.1
20260901140245 82 309 1.0 3.0 0.00 0.00 0.00 87 1016.0
20260901135743 82 341 1.0 3.0 0.00 0.00 0.00 88 1016.0
20260901135241 81 38 0.0 3.0 0.00 0.00 0.00 89 1016.1
20260901134715 81 65 1.0 4.0 0.00 0.00 0.00 90 1016.1
20260901134148 80 15 1.0 4.0 0.00 0.00 0.00 91 1016.1
20260901133645 80 15 0.0 2.0 0.00 0.00 0.00 91 1016.0
20260901133138 80 24 0.0 3.0 0.00 0.00 0.00 92 1016.0
20260901132612 80 45 0.0 3.0 0.00 0.00 0.00 93 1015.9
20260901132109 80 15 0.0 2.0 0.00 0.00 0.00 93 1015.9
20260901131606 79 14 0.0 1.0 0.00 0.00 0.00 93 1015.7
20260901131544 79 15 0.0 1.0 0.00 0.00 0.00 93 1015.7
20260901130809 79 15 0.0 1.0 0.00 0.00 0.00 93 1015.7
20260901130005 79 15 0.0 1.0 0.00 0.00 0.00 93 1015.6
20260901125458 79 15 0.0 1.0 0.00 0.00 0.00 93 1015.5
20260901124955 79 15 0.0 2.0 0.00 0.00 0.00 93 1015.5
20260901124451 79 15 0.0 3.0 0.00 0.00 0.00 93 1015.4
20260901123948 79 14 0.0 3.0 0.00 0.00 0.00 93 1015.4
20260901123421 79 355 0.0 3.0 0.00 0.00 0.00 94 1015.3
20260901122918 79 325 0.0 3.0 0.00 0.00 0.00 94 1015.2
20260901122417 79 282 0.0 1.0 0.00 0.00 0.00 94 1015.2
20260901121915 78 278 0.0 2.0 0.00 0.00 0.00 94 1015.1
20260901121347 78 277 0.0 2.0 0.00 0.00 0.00 94 1015.1
20260901120845 78 250 0.0 1.0 0.00 0.00 0.00 94 1015.0
20260901120318 78 250 0.0 1.0 0.00 0.00 0.00 94 1015.0
20260901115815 78 250 0.0 1.0 0.00 0.00 0.00 93 1015.0
20260901115313 79 225 0.0 0.0 0.00 0.00 0.00 93 1015.0
20260901114810 79 225 0.0 0.0 0.00 0.00 0.00 93 1014.9
20260901114306 79 225 0.0 0.0 0.00 0.00 0.00 93 1014.9
20260901113741 79 225 0.0 0.0 0.00 0.00 0.00 93 1014.9
20260901113228 79 225 0.0 1.0 0.00 0.00 0.00 93 1014.9
20260901112731 79 224 0.0 1.0 0.00 0.00 0.00 93 1014.8
20260901112204 79 224 0.0 0.0 0.00 0.00 0.00 93 1014.8
20260901111701 79 224 0.0 0.0 0.00 0.00 0.00 93 1014.9
20260901111133 79 224 0.0 1.0 0.00 0.00 0.00 93 1014.9
20260901110630 79 224 0.0 1.0 0.00 0.00 0.00 93 1014.8
20260901110105 79 224 0.0 1.0 0.00 0.00 0.00 93 1014.8
20260901105537 79 223 0.0 1.0 0.00 0.00 0.00 93 1014.7
20260901105036 79 223 0.0 1.0 0.00 0.00 0.00 93 1014.8
20260901104508 79 223 0.0 1.0 0.00 0.00 0.00 93 1014.7
20260901104228 79 223 0.0 0.0 0.00 0.00 0.00 92 1014.7
20260901103437 79 223 0.0 0.0 0.00 0.00 0.00 92 1014.7
20260901102936 79 223 0.0 0.0 0.00 0.00 0.00 92 1014.6
20260901102423 79 223 0.0 0.0 0.00 0.00 0.00 92 1014.6
20260901102409 79 223 0.0 0.0 0.00 0.00 0.00 92 1014.6
20260901101359 79 223 0.0 0.0 0.00 0.00 0.00 92 1014.6
20260901100833 79 223 0.0 0.0 0.00 0.00 0.00 92 1014.6
20260901100306 79 223 0.0 0.0 0.00 0.00 0.00 92 1014.6
20260901095803 79 223 0.0 0.0 0.00 0.00 0.00 92 1014.6
20260901095301 79 223 0.0 0.0 0.00 0.00 0.00 92 1014.6
20260901095223 79 223 0.0 0.0 0.00 0.00 0.00 91 1014.6
20260901094231 80 223 0.0 0.0 0.00 0.00 0.00 91 1014.5
20260901093729 80 223 0.0 0.0 0.00 0.00 0.00 91 1014.7
20260901093216 80 223 0.0 0.0 0.00 0.00 0.00 91 1014.7
20260901092718 80 223 0.0 1.0 0.00 0.00 0.00 91 1014.7
20260901092215 80 223 0.0 1.0 0.00 0.00 0.00 91 1014.6
20260901091647 80 222 0.0 0.0 0.00 0.00 0.00 91 1014.6
20260901091144 80 222 0.0 0.0 0.00 0.00 0.00 91 1014.7
20260901090618 80 223 0.0 1.0 0.00 0.00 0.00 91 1014.8
20260901090047 80 223 0.0 1.0 0.00 0.00 0.00 91 1014.7
20260901085543 80 222 0.0 1.0 0.00 0.00 0.00 91 1014.7
20260901085243 80 221 0.0 1.0 0.00 0.00 0.00 91 1014.7
20260901084451 80 211 0.0 1.0 0.00 0.00 0.00 90 1014.6
20260901083923 80 207 0.0 1.0 0.00 0.00 0.00 90 1014.7
20260901083420 80 207 0.0 1.0 0.00 0.00 0.00 90 1014.9
20260901082853 80 207 0.0 1.0 0.00 0.00 0.00 90 1014.9
20260901082350 80 142 0.0 0.0 0.00 0.00 0.00 90 1014.9
20260901082052 80 142 0.0 0.0 0.00 0.00 0.00 90 1014.9
20260901081259 80 142 0.0 0.0 0.00 0.00 0.00 90 1014.9
20260901080731 80 142 0.0 0.0 0.00 0.00 0.00 90 1014.9
20260901080222 80 142 0.0 0.0 0.00 0.00 0.00 90 1014.9
20260901075945 80 142 0.0 0.0 0.00 0.00 0.00 90 1014.9
20260901075707 80 142 0.0 0.0 0.00 0.00 0.00 89 1015.0
20260901074654 80 142 0.0 0.0 0.00 0.00 0.00 89 1014.9
20260901074151 80 142 0.0 0.0 0.00 0.00 0.00 89 1014.9
20260901073623 81 142 0.0 0.0 0.00 0.00 0.00 88 1014.9
20260901073121 81 142 0.0 0.0 0.00 0.00 0.00 88 1015.0
20260901073037 81 142 0.0 0.0 0.00 0.00 0.00 88 1015.1
20260901072025 81 142 0.0 0.0 0.00 0.00 0.00 88 1015.0
20260901071522 81 142 0.0 0.0 0.00 0.00 0.00 87 1015.0
20260901071436 81 142 0.0 0.0 0.00 0.00 0.00 87 1015.0
20260901070454 81 142 0.0 0.0 0.00 0.00 0.00 87 1015.0
20260901065950 82 142 0.0 0.0 0.00 0.00 0.00 86 1015.0
20260901065424 82 142 0.0 0.0 0.00 0.00 0.00 86 1014.9
20260901064921 82 142 0.0 0.0 0.00 0.00 0.00 86 1015.0
20260901064419 82 142 0.0 0.0 0.00 0.00 0.00 85 1015.0
20260901063907 82 142 0.0 0.0 0.00 0.00 0.00 85 1015.0
20260901063409 82 142 0.0 0.0 0.00 0.00 0.00 85 1015.0
20260901062841 82 142 0.0 0.0 0.00 0.00 0.00 85 1015.1
20260901062317 83 142 0.0 0.0 0.00 0.00 0.00 84 1015.2
20260901061751 83 142 0.0 0.0 0.00 0.00 0.00 84 1015.1
20260901061222 83 142 0.0 0.0 0.00 0.00 0.00 84 1015.1
20260901060719 83 142 0.0 0.0 0.00 0.00 0.00 84 1015.2
20260901060217 83 142 0.0 0.0 0.00 0.00 0.00 84 1015.2
20260901055650 83 142 0.0 0.0 0.00 0.00 0.00 84 1015.3
20260901055131 83 142 0.0 0.0 0.00 0.00 0.00 83 1015.2
20260901055115 83 142 0.0 1.0 0.00 0.00 0.00 83 1015.1
20260901054132 83 142 0.0 1.0 0.00 0.00 0.00 83 1015.1
20260901053605 83 142 0.0 0.0 0.00 0.00 0.00 82 1015.1
20260901053102 83 142 0.0 0.0 0.00 0.00 0.00 82 1015.0
20260901052535 83 142 0.0 0.0 0.00 0.00 0.00 82 1015.0
20260901052033 83 142 0.0 1.0 0.00 0.00 0.00 82 1015.0
20260901051507 83 142 0.0 1.0 0.00 0.00 0.00 82 1015.0
20260901050939 83 142 0.0 1.0 0.00 0.00 0.00 81 1015.0
20260901050437 83 141 0.0 1.0 0.00 0.00 0.00 81 1015.0
20260901045909 84 141 0.0 1.0 0.00 0.00 0.00 81 1014.9
20260901045402 84 141 0.0 1.0 0.00 0.00 0.00 80 1014.8
20260901044859 84 141 0.0 1.0 0.00 0.00 0.00 80 1014.8
20260901044358 84 141 0.0 2.0 0.00 0.00 0.00 80 1014.8